Hourly Weather Bolshie Lezhni

Today, 19 June, Saturday

Time Temperature Precipitation Wind Pressure Humidity
00:00 +17°C° 0 mm 2 mps 755 mmHg 88%
01:00 +16°C° 0 mm 2 mps 755 mmHg 89%
02:00 +16°C° 0 mm 2 mps 755 mmHg 90%
03:00 +16°C° 0 mm 2 mps 755 mmHg 89%
04:00 +17°C° 0 mm 2 mps 755 mmHg 88%
05:00 +17°C° 0 mm 2 mps 755 mmHg 87%
06:00 +19°C° 0 mm 2 mps 755 mmHg 81%
07:00 +21°C° 0 mm 2 mps 755 mmHg 75%
08:00 +24°C° 0 mm 2 mps 755 mmHg 68%
09:00 +25°C° 0 mm 2 mps 755 mmHg 64%
10:00 +26°C° 0 mm 3 mps 755 mmHg 60%
11:00 +27°C° 0 mm 3 mps 755 mmHg 56%
12:00 +27°C° 0 mm 3 mps 755 mmHg 55%
13:00 +28°C° 0 mm 4 mps 754 mmHg 53%
14:00 +28°C° 0 mm 4 mps 754 mmHg 50%
15:00 +28°C° 0 mm 3 mps 754 mmHg 53%
16:00 +28°C° 0 mm 3 mps 754 mmHg 56%
17:00 +27°C° 0 mm 3 mps 753 mmHg 59%
18:00 +26°C° 0 mm 3 mps 753 mmHg 67%
19:00 +24°C° 0 mm 2 mps 753 mmHg 74%
20:00 +23°C° 0 mm 2 mps 753 mmHg 82%
21:00 +21°C° 0 mm 2 mps 753 mmHg 85%
22:00 +20°C° 0 mm 2 mps 753 mmHg 89%
23:00 +19°C° 0 mm 2 mps 753 mmHg 92%

Tomorrow, 20 June, Sunday

Time Temperature Precipitation Wind Pressure Humidity
00:00 +19°C° 0 mm 2 mps 753 mmHg 93%
01:00 +19°C° 0 mm 2 mps 753 mmHg 94%
02:00 +19°C° 0 mm 2 mps 753 mmHg 94%
03:00 +19°C° 0 mm 2 mps 753 mmHg 93%
04:00 +19°C° 0 mm 2 mps 753 mmHg 92%
05:00 +20°C° 0 mm 2 mps 753 mmHg 91%
06:00 +21°C° 0 mm 2 mps 753 mmHg 85%
07:00 +24°C° 0 mm 2 mps 753 mmHg 79%
08:00 +26°C° 0 mm 2 mps 753 mmHg 73%
09:00 +27°C° 0 mm 3 mps 753 mmHg 69%
10:00 +28°C° 0 mm 3 mps 753 mmHg 64%
11:00 +29°C° 0 mm 3 mps 753 mmHg 60%
12:00 +30°C° 0 mm 3 mps 753 mmHg 58%
13:00 +30°C° 0 mm 3 mps 752 mmHg 55%
14:00 +31°C° 0 mm 3 mps 752 mmHg 53%
15:00 +30°C° 0 mm 3 mps 752 mmHg 56%
16:00 +30°C° 0 mm 3 mps 752 mmHg 59%
17:00 +29°C° 0 mm 4 mps 751 mmHg 62%
18:00 +28°C° 0 mm 3 mps 751 mmHg 69%
19:00 +26°C° 0 mm 3 mps 751 mmHg 76%
20:00 +24°C° 0 mm 2 mps 751 mmHg 83%
21:00 +23°C° 0 mm 2 mps 751 mmHg 85%
22:00 +21°C° 0 mm 2 mps 751 mmHg 86%
23:00 +20°C° 0 mm 2 mps 751 mmHg 88%

Day after tomorrow, 21 June, Monday

Time Temperature Precipitation Wind Pressure Humidity
00:00 +19°C° 0 mm 2 mps 751 mmHg 88%
01:00 +19°C° 0 mm 2 mps 751 mmHg 89%
02:00 +18°C° 0 mm 2 mps 751 mmHg 90%
03:00 +19°C° 0 mm 2 mps 751 mmHg 89%
04:00 +19°C° 0 mm 2 mps 751 mmHg 89%
05:00 +19°C° 0 mm 2 mps 751 mmHg 88%
06:00 +21°C° 0 mm 2 mps 751 mmHg 82%
07:00 +22°C° 0 mm 3 mps 751 mmHg 76%
08:00 +25°C° 0 mm 3 mps 751 mmHg 70%
09:00 +26°C° 0 mm 3 mps 751 mmHg 64%
10:00 +27°C° 0 mm 4 mps 751 mmHg 59%
11:00 +28°C° 0 mm 4 mps 751 mmHg 53%
12:00 +29°C° 0 mm 4 mps 751 mmHg 50%
13:00 +29°C° 0 mm 4 mps 750 mmHg 48%
14:00 +30°C° 0 mm 4 mps 750 mmHg 45%
15:00 +30°C° 0 mm 4 mps 750 mmHg 49%
16:00 +29°C° 0 mm 4 mps 750 mmHg 54%
17:00 +29°C° 0 mm 4 mps 750 mmHg 58%
18:00 +27°C° 0 mm 3 mps 749 mmHg 65%
19:00 +26°C° 0 mm 3 mps 749 mmHg 72%
20:00 +24°C° 0 mm 2 mps 749 mmHg 80%
21:00 +24°C° 0 mm 3 mps 749 mmHg 83%
22:00 +22°C° 0 mm 3 mps 749 mmHg 86%
23:00 +21°C° 0 mm 3 mps 749 mmHg 89%

22 June, Tuesday

Time Temperature Precipitation Wind Pressure Humidity
00:00 +21°C° 0 mm 3 mps 749 mmHg 91%
01:00 +20°C° 0 mm 3 mps 749 mmHg 93%
02:00 +20°C° 0 mm 3 mps 749 mmHg 95%
03:00 +20°C° 0 mm 3 mps 749 mmHg 94%
04:00 +20°C° 0 mm 3 mps 749 mmHg 93%
05:00 +20°C° 0 mm 3 mps 749 mmHg 93%
06:00 +22°C° 0 mm 3 mps 749 mmHg 86%
07:00 +25°C° 0 mm 4 mps 749 mmHg 79%
08:00 +26°C° 0 mm 4 mps 749 mmHg 73%
09:00 +27°C° 0 mm 5 mps 749 mmHg 67%
10:00 +29°C° 0 mm 5 mps 749 mmHg 62%
11:00 +30°C° 0 mm 5 mps 749 mmHg 57%
12:00 +30°C° 0 mm 5 mps 749 mmHg 55%
13:00 +32°C° 0 mm 5 mps 749 mmHg 54%
14:00 +32°C° 0 mm 5 mps 749 mmHg 52%
15:00 +32°C° 0 mm 5 mps 749 mmHg 55%
16:00 +32°C° 0 mm 4 mps 749 mmHg 58%
17:00 +30°C° 0 mm 4 mps 749 mmHg 61%
18:00 +29°C° 0.1 mm 3 mps 749 mmHg 68%
19:00 +27°C° 0.1 mm 3 mps 749 mmHg 75%
20:00 +26°C° 0.1 mm 2 mps 749 mmHg 82%
21:00 +25°C° 0 mm 3 mps 749 mmHg 85%
22:00 +24°C° 0 mm 3 mps 749 mmHg 87%
23:00 +22°C° 0 mm 3 mps 750 mmHg 90%

23 June, Wednesday

Time Temperature Precipitation Wind Pressure Humidity
00:00 +21°C° 0 mm 3 mps 750 mmHg 91%
01:00 +21°C° 0 mm 3 mps 750 mmHg 92%
02:00 +20°C° 0 mm 2 mps 750 mmHg 93%
03:00 +20°C° 0 mm 2 mps 750 mmHg 92%
04:00 +20°C° 0 mm 2 mps 750 mmHg 91%
05:00 +20°C° 0 mm 2 mps 750 mmHg 90%
06:00 +22°C° 0 mm 3 mps 751 mmHg 83%
07:00 +25°C° 0 mm 3 mps 751 mmHg 77%
08:00 +27°C° 0 mm 3 mps 751 mmHg 70%
09:00 +28°C° 0 mm 4 mps 751 mmHg 65%
10:00 +29°C° 0 mm 4 mps 751 mmHg 60%
11:00 +32°C° 0 mm 4 mps 751 mmHg 55%
12:00 +32°C° 0 mm 4 mps 751 mmHg 54%
13:00 +33°C° 0 mm 4 mps 751 mmHg 52%
14:00 +33°C° 0 mm 4 mps 751 mmHg 51%
15:00 +33°C° 0 mm 4 mps 751 mmHg 53%
16:00 +33°C° 0 mm 4 mps 751 mmHg 55%
17:00 +33°C° 0 mm 3 mps 751 mmHg 57%
18:00 +31°C° 0 mm 3 mps 751 mmHg 64%
19:00 +29°C° 0 mm 3 mps 751 mmHg 72%
20:00 +27°C° 0 mm 3 mps 750 mmHg 79%
21:00 +26°C° 0 mm 3 mps 751 mmHg 81%
22:00 +25°C° 0 mm 3 mps 751 mmHg 83%
23:00 +24°C° 0 mm 2 mps 751 mmHg 86%

24 June, Thursday

Time Temperature Precipitation Wind Pressure Humidity
00:00 +24°C° 0.1 mm 2 mps 751 mmHg 87%
01:00 +23°C° 0.1 mm 2 mps 751 mmHg 89%
02:00 +21°C° 0.1 mm 2 mps 751 mmHg 91%
03:00 +23°C° 0 mm 2 mps 751 mmHg 91%
04:00 +23°C° 0 mm 2 mps 751 mmHg 91%
05:00 +23°C° 0 mm 2 mps 751 mmHg 91%
06:00 +25°C° 0 mm 3 mps 751 mmHg 85%
07:00 +26°C° 0 mm 3 mps 751 mmHg 80%
08:00 +28°C° 0 mm 4 mps 751 mmHg 74%
09:00 +29°C° 0 mm 4 mps 751 mmHg 68%
10:00 +30°C° 0 mm 4 mps 751 mmHg 62%
11:00 +33°C° 0 mm 4 mps 751 mmHg 56%
12:00 +33°C° 0 mm 4 mps 751 mmHg 54%
13:00 +33°C° 0 mm 4 mps 751 mmHg 51%
14:00 +34°C° 0 mm 4 mps 751 mmHg 49%
15:00 +34°C° 0 mm 4 mps 751 mmHg 51%
16:00 +33°C° 0 mm 4 mps 750 mmHg 54%
17:00 +33°C° 0 mm 4 mps 750 mmHg 56%
18:00 +30°C° 0 mm 3 mps 750 mmHg 63%
19:00 +29°C° 0 mm 3 mps 750 mmHg 71%
20:00 +27°C° 0 mm 2 mps 750 mmHg 78%
21:00 +26°C° 0 mm 2 mps 749 mmHg 80%
22:00 +25°C° 0 mm 2 mps 749 mmHg 83%
23:00 +24°C° 0 mm 2 mps 749 mmHg 85%
Show more